Tracking 34142 objects as of 18-May-2026
HD Live streaming from Space Station
objects crossing your sky now

INSAT 3DS

Track INSAT 3DS now!


NORAD ID: 58990
Int'l Code: 2024-033A
Perigee: 35,788.9 km
Apogee: 35,799.4 km
Inclination: 0.1 °
Period: 1,436.1 minutes
Semi major axis: 42165 km
RCS: Unknown
Launch date: February 17, 2024
Source: India (IND)
Launch site: SRIHARIKOTA (SRI)
Your satellite tracking list
Your tracking list is empty




NASA's NSSDC Master Catalog

Two Line Element Set (TLE):
1 58990U 24033A   26137.79767105 -.00000150  00000-0  00000+0 0  9990
2 58990   0.0508 255.9534 0001250 154.2418 194.5354  1.00270235 46766
Source of the keplerian elements: AFSPC